timestamp,surface_pressure_avg,surface_temp_avg,battery_voltage,lat,long
2018-08-21 00:00:00+00:00,231.6814,17.4,13.13,47.84626,-54.09684
2018-08-21 00:10:00+00:00,226.5915,17.4,13.05,47.84626,-54.09684
2018-08-21 00:20:00+00:00,224.9881,17.5,13.13,47.84626,-54.09684
2018-08-21 00:30:00+00:00,222.9081,17.6,13.13,47.84626,-54.09684
2018-08-21 00:40:00+00:00,221.1997,17.66,13.13,47.84626,-54.09684
2018-08-21 00:50:00+00:00,224.0514,17.69,13.13,47.84626,-54.09684
2018-08-21 01:00:00+00:00,225.6064,17.7,13.05,47.84626,-54.09684
2018-08-21 01:10:00+00:00,224.2881,17.7,12.97,47.84626,-54.09684
2018-08-21 01:20:00+00:00,224.0748,17.74,13.05,47.84626,-54.09684
2018-08-21 01:30:00+00:00,225.6181,17.78,13.05,47.84626,-54.09684
2018-08-21 01:40:00+00:00,224.9515,17.84,13.13,47.84626,-54.09684
2018-08-21 01:50:00+00:00,223.3582,17.9,13.13,47.84626,-54.09684
2018-08-21 02:00:00+00:00,220.3381,17.9,13.05,47.84626,-54.09684
2018-08-21 02:10:00+00:00,219.8114,17.9,12.97,47.84626,-54.09684
2018-08-21 02:20:00+00:00,220.6848,17.91,13.05,47.84626,-54.09684
2018-08-21 02:30:00+00:00,221.1147,17.97,13.05,47.84626,-54.09684
2018-08-21 02:40:00+00:00,221.1514,18.0,13.05,47.84626,-54.09684
2018-08-21 02:50:00+00:00,222.7764,18.0,13.13,47.84626,-54.09684
2018-08-21 03:00:00+00:00,223.5665,18.0,13.05,47.84626,-54.09684
2018-08-21 03:10:00+00:00,221.8081,18.0,12.97,47.84626,-54.09684
2018-08-21 03:20:00+00:00,218.7231,18.0,13.05,47.84626,-54.09684
2018-08-21 03:30:00+00:00,218.4364,18.0,13.05,47.84626,-54.09684
2018-08-21 03:40:00+00:00,219.4348,18.0,13.05,47.84626,-54.09684
2018-08-21 03:50:00+00:00,219.7297,18.0,13.05,47.84626,-54.09684
2018-08-21 04:00:00+00:00,219.9648,18.0,13.05,47.84626,-54.09684
2018-08-21 04:10:00+00:00,222.3548,18.0,12.97,47.84626,-54.09684
2018-08-21 04:20:00+00:00,227.7331,18.0,13.05,47.84626,-54.09684
2018-08-21 04:30:00+00:00,232.9448,18.0,13.05,47.84626,-54.09684
2018-08-21 04:40:00+00:00,238.4164,18.0,13.05,47.84626,-54.09684
2018-08-21 04:50:00+00:00,244.9764,18.0,13.05,47.84626,-54.09684
2018-08-21 05:00:00+00:00,250.5547,18.0,13.05,47.84626,-54.09684
2018-08-21 05:10:00+00:00,254.4198,18.0,12.97,47.84626,-54.09684
2018-08-21 05:20:00+00:00,260.4164,18.0,13.05,47.84626,-54.09684
2018-08-21 05:30:00+00:00,264.678,18.0,13.05,47.84626,-54.09684
2018-08-21 05:40:00+00:00,269.3614,18.0,13.05,47.84626,-54.09684
2018-08-21 05:50:00+00:00,272.4164,18.0,13.05,47.84626,-54.09684
2018-08-21 06:00:00+00:00,276.6497,18.0,12.97,47.84626,-54.09684
2018-08-21 06:10:00+00:00,279.0847,18.0,12.89,47.84626,-54.09684
2018-08-21 06:20:00+00:00,282.0447,18.0,12.97,47.84626,-54.09684
2018-08-21 06:30:00+00:00,280.638,18.0,12.97,47.84626,-54.09684
2018-08-21 06:40:00+00:00,281.6913,18.0,13.05,47.84626,-54.09684
2018-08-21 06:50:00+00:00,285.3981,17.99,13.05,47.84626,-54.09684
2018-08-21 07:00:00+00:00,287.9164,17.99,12.97,47.84626,-54.09684
2018-08-21 07:10:00+00:00,283.023,18.0,12.89,47.84626,-54.09684
2018-08-21 07:20:00+00:00,283.4947,17.99,12.97,47.84626,-54.09684
2018-08-21 07:30:00+00:00,291.403,18.0,12.97,47.84626,-54.09684
2018-08-21 07:40:00+00:00,296.6929,18.0,12.97,47.84626,-54.09684
2018-08-21 07:50:00+00:00,294.7847,18.0,12.97,47.84626,-54.09684
2018-08-21 08:00:00+00:00,294.4714,18.0,12.97,47.84626,-54.09684
2018-08-21 08:10:00+00:00,298.0331,18.0,12.89,47.84626,-54.09684
2018-08-21 08:20:00+00:00,300.3663,18.0,12.97,47.84626,-54.09684
2018-08-21 08:30:00+00:00,300.8331,18.0,12.97,47.84626,-54.09684
2018-08-21 08:40:00+00:00,301.8064,17.99,12.97,47.84626,-54.09684
2018-08-21 08:50:00+00:00,302.0397,17.97,12.97,47.84626,-54.09684
2018-08-21 09:00:00+00:00,298.5696,17.94,12.97,47.84626,-54.09684
2018-08-21 09:10:00+00:00,294.8864,17.9,12.81,47.84626,-54.09684
2018-08-21 09:20:00+00:00,293.8763,17.9,12.89,47.84626,-54.09684
2018-08-21 09:30:00+00:00,289.5197,17.9,12.97,47.84626,-54.09684
2018-08-21 09:40:00+00:00,282.7147,17.9,12.97,47.84626,-54.09684
2018-08-21 09:50:00+00:00,274.3614,17.9,12.97,47.84626,-54.09684
2018-08-21 10:00:00+00:00,269.7931,17.9,12.97,47.84626,-54.09684
2018-08-21 10:10:00+00:00,265.2231,17.9,12.89,47.84626,-54.09684
2018-08-21 10:20:00+00:00,259.5431,17.9,12.97,47.84626,-54.09684
2018-08-21 10:30:00+00:00,253.2198,17.9,13.05,47.84626,-54.09684
2018-08-21 10:40:00+00:00,249.4181,17.9,13.21,47.84626,-54.09684
2018-08-21 10:50:00+00:00,247.3265,17.9,13.44,47.84626,-54.09684
2018-08-21 11:00:00+00:00,243.5114,17.9,13.53,47.84626,-54.09684
2018-08-21 11:10:00+00:00,237.9081,17.9,13.44,47.84626,-54.09684
2018-08-21 11:20:00+00:00,234.738,17.88,13.44,47.84626,-54.09684
2018-08-21 11:30:00+00:00,233.4132,17.85,13.53,47.84626,-54.09684
2018-08-21 11:40:00+00:00,233.5415,17.86,13.6,47.84626,-54.09684
2018-08-21 11:50:00+00:00,233.3815,17.88,13.68,47.84626,-54.09684
2018-08-21 12:00:00+00:00,229.1747,17.88,13.68,47.84626,-54.09684
2018-08-21 12:10:00+00:00,224.6931,17.88,13.6,47.84626,-54.09684
2018-08-21 12:20:00+00:00,224.7447,17.89,13.68,47.84626,-54.09684
2018-08-21 12:30:00+00:00,224.8398,17.9,13.76,47.84626,-54.09684
2018-08-21 12:40:00+00:00,221.5981,17.9,13.84,47.84626,-54.09684
2018-08-21 12:50:00+00:00,219.4348,17.9,13.92,47.84626,-54.09684
2018-08-21 13:00:00+00:00,218.6648,17.9,13.92,47.84626,-54.09684
2018-08-21 13:10:00+00:00,214.2215,17.9,13.84,47.84626,-54.09684
2018-08-21 13:20:00+00:00,211.8865,17.9,14.0,47.84626,-54.09684
2018-08-21 13:30:00+00:00,213.3648,17.9,14.24,47.84626,-54.09684
2018-08-21 13:40:00+00:00,212.3082,17.9,14.56,47.84626,-54.09684
2018-08-21 13:50:00+00:00,209.6698,17.94,15.83,47.84626,-54.09684
2018-08-21 14:00:00+00:00,211.8032,17.95,14.48,47.84626,-54.09684
2018-08-21 14:10:00+00:00,215.1447,17.95,16.15,47.84626,-54.09684
2018-08-21 14:20:00+00:00,214.4948,17.96,14.64,47.84626,-54.09684
2018-08-21 14:30:00+00:00,214.5197,17.97,14.72,47.84626,-54.09684
2018-08-21 14:40:00+00:00,219.5831,17.95,14.8,47.84626,-54.09684
2018-08-21 14:50:00+00:00,223.5047,17.93,14.72,47.84626,-54.09684
2018-08-21 15:00:00+00:00,223.2881,17.95,14.56,47.84626,-54.09684
2018-08-21 15:10:00+00:00,224.0364,17.97,14.48,47.84626,-54.09684
2018-08-21 15:20:00+00:00,226.7114,17.96,14.64,47.84626,-54.09684
2018-08-21 15:30:00+00:00,227.5847,17.97,14.64,47.84626,-54.09684
2018-08-21 15:40:00+00:00,229.4531,17.98,14.64,47.84626,-54.09684
2018-08-21 15:50:00+00:00,234.8781,17.95,14.64,47.84626,-54.09684
2018-08-21 16:00:00+00:00,240.6331,17.92,14.56,47.84626,-54.09684
2018-08-21 16:10:00+00:00,242.9115,17.95,14.48,47.84626,-54.09684
2018-08-21 16:20:00+00:00,245.0913,17.98,14.56,47.84626,-54.09684
2018-08-21 16:30:00+00:00,247.6364,17.99,14.56,47.84626,-54.09684
2018-08-21 16:40:00+00:00,251.9481,17.99,14.48,47.84626,-54.09684
2018-08-21 16:50:00+00:00,256.8014,17.99,14.48,47.84626,-54.09684
2018-08-21 17:00:00+00:00,262.3347,17.98,14.4,47.84626,-54.09684
2018-08-21 17:10:00+00:00,265.6781,17.98,14.32,47.84626,-54.09684
2018-08-21 17:20:00+00:00,271.2614,17.98,14.4,47.84626,-54.09684
2018-08-21 17:30:00+00:00,276.7131,17.96,14.4,47.84626,-54.09684
2018-08-21 17:40:00+00:00,284.218,18.0,14.32,47.84626,-54.09684
2018-08-21 17:50:00+00:00,289.938,18.0,14.32,47.84626,-54.09684
2018-08-21 18:00:00+00:00,294.0797,18.0,14.24,47.84626,-54.09684
2018-08-21 18:10:00+00:00,297.7396,18.03,14.16,47.84626,-54.09684
2018-08-21 18:20:00+00:00,301.6647,18.06,14.24,47.84626,-54.09684
2018-08-21 18:30:00+00:00,306.8014,18.09,14.16,47.84626,-54.09684
2018-08-21 18:40:00+00:00,309.0333,18.1,14.16,47.84626,-54.09684
2018-08-21 18:50:00+00:00,310.7264,18.1,14.16,47.84626,-54.09684
2018-08-21 19:00:00+00:00,315.8413,18.1,14.08,47.84626,-54.09684
2018-08-21 19:10:00+00:00,320.7346,18.1,13.92,47.84626,-54.09684
2018-08-21 19:20:00+00:00,319.828,18.1,14.0,47.84626,-54.09684
2018-08-21 19:30:00+00:00,319.9197,18.1,14.08,47.84626,-54.09684
2018-08-21 19:40:00+00:00,322.6613,18.1,14.08,47.84626,-54.09684
2018-08-21 19:50:00+00:00,324.258,18.08,14.08,47.84626,-54.09684
2018-08-21 20:00:00+00:00,321.6047,18.1,14.0,47.84626,-54.09684
2018-08-21 20:10:00+00:00,324.0463,18.1,13.92,47.84626,-54.09684
2018-08-21 20:20:00+00:00,331.0098,18.09,13.92,47.84626,-54.09684
2018-08-21 20:30:00+00:00,329.3896,18.1,13.92,47.84626,-54.09684
2018-08-21 20:40:00+00:00,327.8529,18.17,13.92,47.84626,-54.09684
2018-08-21 20:50:00+00:00,332.1146,18.2,13.84,47.84626,-54.09684
2018-08-21 21:00:00+00:00,334.3213,18.18,13.76,47.84626,-54.09684
2018-08-21 21:10:00+00:00,328.1363,18.2,13.68,47.84626,-54.09684
2018-08-21 21:20:00+00:00,327.0714,18.2,13.68,47.84626,-54.09684
2018-08-21 21:30:00+00:00,332.0579,18.17,13.6,47.84626,-54.09684
2018-08-21 21:40:00+00:00,329.0813,18.2,13.6,47.84626,-54.09684
2018-08-21 21:50:00+00:00,320.8229,18.32,13.53,47.84626,-54.09684
2018-08-21 22:00:00+00:00,320.1296,18.3,13.44,47.84626,-54.09684
2018-08-21 22:10:00+00:00,318.8813,18.26,13.29,47.84626,-54.09684
2018-08-21 22:20:00+00:00,311.3413,18.38,13.29,47.84626,-54.09684
2018-08-21 22:30:00+00:00,307.4496,18.4,13.29,47.84626,-54.09684
2018-08-21 22:40:00+00:00,304.688,18.4,13.29,47.84626,-54.09684
2018-08-21 22:50:00+00:00,298.2547,18.44,13.29,47.84626,-54.09684
2018-08-21 23:00:00+00:00,290.903,18.49,13.21,47.84626,-54.09684
2018-08-21 23:10:00+00:00,288.8931,18.49,13.05,47.84626,-54.09684
2018-08-21 23:20:00+00:00,282.9847,18.5,13.13,47.84626,-54.09684
2018-08-21 23:30:00+00:00,274.8948,18.5,13.13,47.84626,-54.09684
2018-08-21 23:40:00+00:00,272.0547,18.5,13.13,47.84626,-54.09684
2018-08-21 23:50:00+00:00,271.0314,18.5,13.13,47.84626,-54.09684
